Time,TemperatureF,DewpointF,PressureIn,WindDirection,WindDirectionDegrees,WindSpeedMPH,WindSpeedGustMPH,Humidity,HourlyPrecipIn,Conditions,Clouds,dailyrainin,SoftwareType,DateUTC
2013-05-17 00:01:00,47.0,42.7,29.86,WNW,283,0.0,2.0,85,0.00,,---,0.00,VWS V13.00,2013-05-17 07:01:00,
2013-05-17 00:06:00,46.8,42.5,29.86,WNW,283,1.0,2.0,85,0.00,,---,0.00,VWS V13.00,2013-05-17 07:06:00,
2013-05-17 00:11:00,46.6,42.3,29.86,WNW,283,1.0,2.0,85,0.00,,---,0.00,VWS V13.00,2013-05-17 07:11:00,
2013-05-17 00:16:00,46.4,42.5,29.86,WNW,283,2.0,2.0,86,0.00,,---,0.00,VWS V13.00,2013-05-17 07:16:00,
2013-05-17 00:21:00,46.3,42.3,29.86,WNW,283,1.0,2.0,86,0.00,,---,0.00,VWS V13.00,2013-05-17 07:21:00,
2013-05-17 00:26:00,46.1,42.2,29.86,WNW,283,1.0,2.0,86,0.00,,---,0.00,VWS V13.00,2013-05-17 07:26:00,
2013-05-17 00:31:00,46.0,42.0,29.86,WNW,283,2.0,3.0,86,0.00,,---,0.00,VWS V13.00,2013-05-17 07:31:00,
2013-05-17 00:36:00,45.8,42.2,29.86,WNW,283,2.0,3.0,87,0.00,,---,0.00,VWS V13.00,2013-05-17 07:36:00,
2013-05-17 00:41:00,45.6,42.0,29.86,WNW,283,1.0,3.0,87,0.00,,---,0.00,VWS V13.00,2013-05-17 07:41:00,
2013-05-17 00:46:00,45.5,41.9,29.86,WNW,283,2.0,3.0,87,0.00,,---,0.00,VWS V13.00,2013-05-17 07:46:00,
2013-05-17 00:51:00,45.2,41.6,29.86,WNW,283,2.0,3.0,87,0.00,,---,0.00,VWS V13.00,2013-05-17 07:51:00,
2013-05-17 00:56:00,45.0,41.4,29.86,WNW,283,2.0,4.0,87,0.00,,---,0.00,VWS V13.00,2013-05-17 07:56:00,
2013-05-17 01:01:00,44.9,41.3,29.85,WNW,283,3.0,3.0,87,0.00,,---,0.00,VWS V13.00,2013-05-17 08:01:00,
2013-05-17 01:06:00,44.7,41.4,29.84,WNW,283,1.0,4.0,88,0.00,,---,0.00,VWS V13.00,2013-05-17 08:06:00,
2013-05-17 01:11:00,44.6,41.3,29.84,WNW,283,0.0,4.0,88,0.00,,---,0.00,VWS V13.00,2013-05-17 08:11:00,
2013-05-17 01:16:00,44.4,41.1,29.85,WNW,283,0.0,4.0,88,0.00,,---,0.00,VWS V13.00,2013-05-17 08:16:00,
2013-05-17 01:21:00,44.3,41.0,29.84,WNW,283,0.0,4.0,88,0.00,,---,0.00,VWS V13.00,2013-05-17 08:21:00,
2013-05-17 01:26:00,44.2,40.9,29.84,WNW,283,0.0,4.0,88,0.00,,---,0.00,VWS V13.00,2013-05-17 08:26:00,
2013-05-17 01:31:00,44.2,40.9,29.84,WNW,283,0.0,0.0,88,0.00,,---,0.00,VWS V13.00,2013-05-17 08:31:00,
2013-05-17 01:36:00,44.1,40.8,29.84,WNW,283,0.0,0.0,88,0.00,,---,0.00,VWS V13.00,2013-05-17 08:36:00,
2013-05-17 01:41:00,44.0,40.7,29.84,WNW,283,0.0,0.0,88,0.00,,---,0.00,VWS V13.00,2013-05-17 08:41:00,
2013-05-17 01:46:00,43.9,40.6,29.84,WNW,283,0.0,0.0,88,0.00,,---,0.00,VWS V13.00,2013-05-17 08:46:00,
2013-05-17 01:51:00,43.8,40.5,29.84,WNW,283,0.0,0.0,88,0.00,,---,0.00,VWS V13.00,2013-05-17 08:51:00,
2013-05-17 01:56:00,43.7,40.7,29.84,WNW,283,0.0,0.0,89,0.00,,---,0.00,VWS V13.00,2013-05-17 08:56:00,
2013-05-17 02:01:00,43.6,40.6,29.84,WNW,283,0.0,0.0,89,0.00,,---,0.00,VWS V13.00,2013-05-17 09:01:00,
2013-05-17 02:06:00,43.4,40.1,29.85,WNW,283,0.0,0.0,88,0.00,,---,0.00,VWS V13.00,2013-05-17 09:06:00,
2013-05-17 02:11:00,43.3,40.0,29.85,WNW,283,0.0,0.0,88,0.00,,---,0.00,VWS V13.00,2013-05-17 09:11:00,
2013-05-17 02:16:00,43.2,39.9,29.85,WNW,283,0.0,0.0,88,0.00,,---,0.00,VWS V13.00,2013-05-17 09:16:00,
2013-05-17 02:21:00,43.2,40.2,29.85,WNW,283,0.0,0.0,89,0.00,,---,0.00,VWS V13.00,2013-05-17 09:21:00,
2013-05-17 02:26:00,43.1,40.1,29.85,WNW,283,0.0,1.0,89,0.00,,---,0.00,VWS V13.00,2013-05-17 09:26:00,
2013-05-17 02:31:00,43.1,40.1,29.85,WNW,283,0.0,1.0,89,0.00,,---,0.00,VWS V13.00,2013-05-17 09:31:00,
2013-05-17 02:36:00,43.1,40.1,29.85,WNW,283,0.0,1.0,89,0.00,,---,0.00,VWS V13.00,2013-05-17 09:36:00,
2013-05-17 02:41:00,43.0,40.0,29.85,WNW,283,0.0,1.0,89,0.00,,---,0.00,VWS V13.00,2013-05-17 09:41:00,
2013-05-17 02:45:00,42.9,40.2,29.85,WNW,283,0.0,1.0,90,0.00,,---,0.00,VWS V13.00,2013-05-17 09:45:00,
2013-05-17 02:50:00,42.9,40.2,29.85,WNW,283,0.0,1.0,90,0.00,,---,0.00,VWS V13.00,2013-05-17 09:50:00,
2013-05-17 02:55:00,42.8,40.1,29.85,WNW,283,0.0,1.0,90,0.00,,---,0.00,VWS V13.00,2013-05-17 09:55:00,
2013-05-17 03:00:00,42.7,40.0,29.85,WNW,283,0.0,0.0,90,0.00,,---,0.00,VWS V13.00,2013-05-17 10:00:00,
2013-05-17 03:05:00,42.7,40.0,29.85,WNW,283,0.0,0.0,90,0.00,,---,0.00,VWS V13.00,2013-05-17 10:05:00,
2013-05-17 03:10:00,42.6,39.9,29.85,WNW,283,0.0,0.0,90,0.00,,---,0.00,VWS V13.00,2013-05-17 10:10:00,
2013-05-17 03:15:00,42.5,39.8,29.85,WNW,283,0.0,0.0,90,0.00,,---,0.00,VWS V13.00,2013-05-17 10:15:00,
2013-05-17 03:20:00,42.4,39.7,29.85,WNW,283,0.0,0.0,90,0.00,,---,0.00,VWS V13.00,2013-05-17 10:20:00,
2013-05-17 03:25:00,42.3,39.6,29.85,WNW,283,0.0,0.0,90,0.00,,---,0.00,VWS V13.00,2013-05-17 10:25:00,
2013-05-17 03:30:00,42.3,39.6,29.85,WNW,283,0.0,0.0,90,0.00,,---,0.00,VWS V13.00,2013-05-17 10:30:00,
2013-05-17 03:35:00,42.2,39.5,29.85,WNW,283,0.0,0.0,90,0.00,,---,0.00,VWS V13.00,2013-05-17 10:35:00,
2013-05-17 03:40:00,42.1,39.4,29.85,WNW,283,0.0,0.0,90,0.00,,---,0.00,VWS V13.00,2013-05-17 10:40:00,
2013-05-17 03:45:00,42.0,39.3,29.85,WNW,283,0.0,0.0,90,0.00,,---,0.00,VWS V13.00,2013-05-17 10:45:00,
2013-05-17 03:50:00,41.9,39.2,29.85,WNW,283,0.0,1.0,90,0.00,,---,0.00,VWS V13.00,2013-05-17 10:50:00,
2013-05-17 03:55:00,41.8,39.1,29.85,WNW,283,0.0,1.0,90,0.00,,---,0.00,VWS V13.00,2013-05-17 10:55:00,
2013-05-17 04:00:00,41.7,39.0,29.85,WNW,283,1.0,2.0,90,0.00,,---,0.00,VWS V13.00,2013-05-17 11:00:00,
2013-05-17 04:05:00,41.7,39.0,29.85,WNW,283,0.0,2.0,90,0.00,,---,0.00,VWS V13.00,2013-05-17 11:05:00,
2013-05-17 04:10:00,41.6,38.9,29.85,WNW,283,0.0,2.0,90,0.00,,---,0.00,VWS V13.00,2013-05-17 11:10:00,
2013-05-17 04:15:00,41.7,39.3,29.85,WNW,283,0.0,2.0,91,0.00,,---,0.00,VWS V13.00,2013-05-17 11:15:00,
2013-05-17 04:20:00,41.6,39.2,29.85,WNW,283,0.0,2.0,91,0.00,,---,0.00,VWS V13.00,2013-05-17 11:20:00,
2013-05-17 04:25:00,41.6,39.2,29.85,WNW,283,0.0,2.0,91,0.00,,---,0.00,VWS V13.00,2013-05-17 11:25:00,
2013-05-17 04:30:00,41.5,39.1,29.85,WNW,283,0.0,0.0,91,0.00,,---,0.00,VWS V13.00,2013-05-17 11:30:00,
2013-05-17 04:35:00,41.5,39.1,29.85,WNW,283,0.0,0.0,91,0.00,,---,0.00,VWS V13.00,2013-05-17 11:35:00,
2013-05-17 04:40:00,41.4,39.0,29.85,WNW,283,0.0,0.0,91,0.00,,---,0.00,VWS V13.00,2013-05-17 11:40:00,
2013-05-17 04:45:00,41.3,38.9,29.85,WNW,283,2.0,2.0,91,0.00,,---,0.00,VWS V13.00,2013-05-17 11:45:00,
2013-05-17 04:50:00,41.3,38.9,29.85,WNW,283,1.0,2.0,91,0.00,,---,0.00,VWS V13.00,2013-05-17 11:50:00,
2013-05-17 04:55:00,41.2,38.8,29.85,WNW,283,1.0,2.0,91,0.00,,---,0.00,VWS V13.00,2013-05-17 11:55:00,
2013-05-17 05:00:00,41.1,38.7,29.85,WNW,283,0.0,0.0,91,0.00,,---,0.00,VWS V13.00,2013-05-17 12:00:00,
2013-05-17 05:05:00,41.1,38.7,29.85,WNW,283,0.0,0.0,91,0.00,,---,0.00,VWS V13.00,2013-05-17 12:05:00,
2013-05-17 05:10:00,41.1,38.7,29.86,WNW,283,0.0,0.0,91,0.00,,---,0.00,VWS V13.00,2013-05-17 12:10:00,
2013-05-17 05:15:00,41.0,38.6,29.86,WNW,283,0.0,0.0,91,0.00,,---,0.00,VWS V13.00,2013-05-17 12:15:00,
2013-05-17 05:20:00,40.9,38.5,29.86,WNW,283,0.0,0.0,91,0.00,,---,0.00,VWS V13.00,2013-05-17 12:20:00,
2013-05-17 05:25:00,40.9,38.5,29.86,WNW,283,0.0,0.0,91,0.00,,---,0.00,VWS V13.00,2013-05-17 12:25:00,
2013-05-17 05:30:00,40.8,38.4,29.86,WNW,283,0.0,0.0,91,0.00,,---,0.00,VWS V13.00,2013-05-17 12:30:00,
2013-05-17 05:35:00,40.7,38.3,29.86,WNW,283,0.0,0.0,91,0.00,,---,0.00,VWS V13.00,2013-05-17 12:35:00,
2013-05-17 05:40:00,40.6,38.2,29.86,WNW,283,0.0,0.0,91,0.00,,---,0.00,VWS V13.00,2013-05-17 12:40:00,
2013-05-17 05:45:00,40.6,38.2,29.86,WNW,283,0.0,0.0,91,0.00,,---,0.00,VWS V13.00,2013-05-17 12:45:00,
2013-05-17 05:50:00,40.5,38.1,29.86,WNW,283,0.0,0.0,91,0.00,,---,0.00,VWS V13.00,2013-05-17 12:50:00,
2013-05-17 05:55:00,40.5,38.1,29.86,WNW,283,0.0,0.0,91,0.00,,---,0.00,VWS V13.00,2013-05-17 12:55:00,
2013-05-17 06:00:00,40.5,38.1,29.87,WNW,283,0.0,0.0,91,0.00,,---,0.00,VWS V13.00,2013-05-17 13:00:00,
2013-05-17 06:05:00,40.5,38.1,29.87,WNW,283,0.0,0.0,91,0.00,,---,0.00,VWS V13.00,2013-05-17 13:05:00,
2013-05-17 06:10:00,40.6,38.2,29.87,WNW,283,0.0,0.0,91,0.00,,---,0.00,VWS V13.00,2013-05-17 13:10:00,
2013-05-17 06:15:00,40.7,38.6,29.87,WNW,283,0.0,1.0,92,0.00,,---,0.00,VWS V13.00,2013-05-17 13:15:00,
2013-05-17 06:20:00,40.9,38.8,29.87,WNW,283,0.0,1.0,92,0.00,,---,0.00,VWS V13.00,2013-05-17 13:20:00,
2013-05-17 06:25:00,41.1,39.0,29.87,WNW,283,0.0,1.0,92,0.00,,---,0.00,VWS V13.00,2013-05-17 13:25:00,
2013-05-17 06:30:00,41.3,39.2,29.87,WNW,283,0.0,0.0,92,0.00,,---,0.00,VWS V13.00,2013-05-17 13:30:00,
2013-05-17 06:35:00,41.7,39.8,29.86,WNW,283,0.0,0.0,93,0.00,,---,0.00,VWS V13.00,2013-05-17 13:35:00,
2013-05-17 06:40:00,42.0,40.1,29.86,WNW,283,0.0,0.0,93,0.00,,---,0.00,VWS V13.00,2013-05-17 13:40:00,
2013-05-17 06:45:00,42.3,40.4,29.87,WNW,283,0.0,0.0,93,0.00,,---,0.00,VWS V13.00,2013-05-17 13:45:00,
2013-05-17 06:50:00,42.7,40.8,29.87,WNW,283,0.0,1.0,93,0.00,,---,0.00,VWS V13.00,2013-05-17 13:50:00,
2013-05-17 06:55:00,43.0,41.1,29.87,WNW,283,0.0,1.0,93,0.00,,---,0.00,VWS V13.00,2013-05-17 13:55:00,
2013-05-17 07:00:00,43.4,41.5,29.87,WNW,283,0.0,0.0,93,0.00,,---,0.00,VWS V13.00,2013-05-17 14:00:00,
2013-05-17 07:05:00,43.8,41.9,29.87,WNW,283,0.0,1.0,93,0.00,,---,0.00,VWS V13.00,2013-05-17 14:05:00,
2013-05-17 07:10:00,44.1,42.2,29.88,WNW,283,0.0,1.0,93,0.00,,---,0.00,VWS V13.00,2013-05-17 14:10:00,
2013-05-17 07:15:00,44.5,42.6,29.87,WNW,283,0.0,1.0,93,0.00,,---,0.00,VWS V13.00,2013-05-17 14:15:00,
2013-05-17 07:20:00,44.8,42.9,29.87,WSW,238,0.0,1.0,93,0.00,,---,0.00,VWS V13.00,2013-05-17 14:20:00,
2013-05-17 07:25:00,45.0,43.1,29.87,WSW,238,0.0,1.0,93,0.00,,---,0.00,VWS V13.00,2013-05-17 14:25:00,
2013-05-17 07:30:00,45.3,43.4,29.87,WSW,238,0.0,0.0,93,0.00,,---,0.00,VWS V13.00,2013-05-17 14:30:00,
2013-05-17 07:35:00,45.6,43.7,29.87,WSW,238,0.0,1.0,93,0.00,,---,0.00,VWS V13.00,2013-05-17 14:35:00,
2013-05-17 07:40:00,46.0,44.1,29.87,WSW,238,0.0,1.0,93,0.00,,---,0.00,VWS V13.00,2013-05-17 14:40:00,
2013-05-17 07:45:00,46.3,44.4,29.87,WSW,238,0.0,1.0,93,0.00,,---,0.00,VWS V13.00,2013-05-17 14:45:00,
2013-05-17 07:50:00,46.6,44.7,29.86,WSW,238,0.0,1.0,93,0.00,,---,0.00,VWS V13.00,2013-05-17 14:50:00,
2013-05-17 07:55:00,47.0,45.1,29.86,WSW,238,0.0,1.0,93,0.00,,---,0.00,VWS V13.00,2013-05-17 14:55:00,
2013-05-17 08:00:00,47.4,45.5,29.87,South,191,0.0,1.0,93,0.00,,---,0.00,VWS V13.00,2013-05-17 15:00:00,
2013-05-17 08:05:00,47.8,45.9,29.87,South,191,0.0,2.0,93,0.00,,---,0.00,VWS V13.00,2013-05-17 15:05:00,
2013-05-17 08:10:00,48.1,45.9,29.87,South,191,0.0,2.0,92,0.00,,---,0.00,VWS V13.00,2013-05-17 15:10:00,
2013-05-17 08:15:00,48.3,46.1,29.87,NNW,337,2.0,4.0,92,0.00,,---,0.00,VWS V13.00,2013-05-17 15:15:00,
2013-05-17 08:20:00,48.5,46.0,29.87,NNW,337,2.0,4.0,91,0.00,,---,0.00,VWS V13.00,2013-05-17 15:20:00,
2013-05-17 08:25:00,48.8,46.3,29.87,NNW,337,1.0,4.0,91,0.00,,---,0.00,VWS V13.00,2013-05-17 15:25:00,
2013-05-17 08:30:00,49.0,46.2,29.86,West,280,2.0,3.0,90,0.00,,---,0.00,VWS V13.00,2013-05-17 15:30:00,
2013-05-17 08:35:00,49.3,46.5,29.87,West,280,0.0,3.0,90,0.00,,---,0.00,VWS V13.00,2013-05-17 15:35:00,
2013-05-17 08:40:00,49.7,46.6,29.86,West,260,0.0,3.0,89,0.00,,---,0.00,VWS V13.00,2013-05-17 15:40:00,
2013-05-17 08:45:00,50.1,46.7,29.86,NNW,327,4.0,4.0,88,0.00,,---,0.00,VWS V13.00,2013-05-17 15:45:00,
2013-05-17 08:50:00,50.5,46.5,29.86,NNW,327,0.0,4.0,86,0.00,,---,0.00,VWS V13.00,2013-05-17 15:50:00,
2013-05-17 08:55:00,50.8,46.8,29.86,NNW,327,0.0,4.0,86,0.00,,---,0.00,VWS V13.00,2013-05-17 15:55:00,
2013-05-17 09:00:00,51.0,46.7,29.87,NNW,327,0.0,0.0,85,0.00,,---,0.00,VWS V13.00,2013-05-17 16:00:00,
2013-05-17 09:05:00,51.3,46.6,29.87,WSW,249,2.0,4.0,84,0.00,,---,0.00,VWS V13.00,2013-05-17 16:05:00,
2013-05-17 09:10:00,51.5,46.8,29.86,West,266,0.0,4.0,84,0.00,,---,0.00,VWS V13.00,2013-05-17 16:10:00,
2013-05-17 09:15:00,51.9,47.2,29.86,NNE,17,0.0,5.0,84,0.00,,---,0.00,VWS V13.00,2013-05-17 16:15:00,
2013-05-17 09:20:00,52.3,47.3,29.86,NNE,17,2.0,5.0,83,0.00,,---,0.00,VWS V13.00,2013-05-17 16:20:00,
2013-05-17 09:25:00,52.6,47.3,29.86,ENE,59,0.0,5.0,82,0.00,,---,0.00,VWS V13.00,2013-05-17 16:25:00,
2013-05-17 09:30:00,52.9,47.2,29.86,South,179,0.0,1.0,81,0.00,,---,0.00,VWS V13.00,2013-05-17 16:30:00,
2013-05-17 09:35:00,53.3,48.0,29.86,SSE,152,4.0,5.0,82,0.00,,---,0.00,VWS V13.00,2013-05-17 16:35:00,
2013-05-17 09:40:00,53.8,48.1,29.86,SSE,152,2.0,5.0,81,0.00,,---,0.00,VWS V13.00,2013-05-17 16:40:00,
2013-05-17 09:45:00,54.1,47.7,29.85,SSE,152,0.0,5.0,79,0.00,,---,0.00,VWS V13.00,2013-05-17 16:45:00,
2013-05-17 09:50:00,54.5,48.1,29.85,SE,129,1.0,5.0,79,0.00,,---,0.00,VWS V13.00,2013-05-17 16:50:00,
2013-05-17 09:55:00,54.8,47.7,29.85,WSW,250,0.0,5.0,77,0.00,,---,0.00,VWS V13.00,2013-05-17 16:55:00,
2013-05-17 10:00:00,55.2,48.1,29.85,SSE,150,3.0,5.0,77,0.00,,---,0.00,VWS V13.00,2013-05-17 17:00:00,
2013-05-17 10:05:00,55.5,48.1,29.85,SSE,149,0.0,5.0,76,0.00,,---,0.00,VWS V13.00,2013-05-17 17:05:00,
2013-05-17 10:10:00,55.9,48.8,29.85,SSE,150,0.0,5.0,77,0.00,,---,0.00,VWS V13.00,2013-05-17 17:10:00,
2013-05-17 10:15:00,56.3,49.5,29.85,SSE,150,2.0,5.0,78,0.00,,---,0.00,VWS V13.00,2013-05-17 17:15:00,
2013-05-17 10:20:00,56.6,48.4,29.85,WNW,292,0.0,5.0,74,0.00,,---,0.00,VWS V13.00,2013-05-17 17:20:00,
2013-05-17 10:25:00,57.1,49.3,29.85,SSE,149,3.0,5.0,75,0.00,,---,0.00,VWS V13.00,2013-05-17 17:25:00,
2013-05-17 10:30:00,58.4,49.0,29.85,South,186,2.0,3.0,71,0.00,,---,0.00,VWS V13.00,2013-05-17 17:30:00,
2013-05-17 10:35:00,59.0,49.6,29.84,South,184,4.0,6.0,71,0.00,,---,0.00,VWS V13.00,2013-05-17 17:35:00,
2013-05-17 10:40:00,59.8,49.6,29.84,SSE,165,1.0,7.0,69,0.00,,---,0.00,VWS V13.00,2013-05-17 17:40:00,
2013-05-17 10:45:00,59.8,48.8,29.84,East,91,0.0,7.0,67,0.00,,---,0.00,VWS V13.00,2013-05-17 17:45:00,
2013-05-17 10:50:00,59.9,48.5,29.84,East,98,0.0,7.0,66,0.00,,---,0.00,VWS V13.00,2013-05-17 17:50:00,
2013-05-17 10:55:00,60.4,50.6,29.84,ESE,102,0.0,7.0,70,0.00,,---,0.00,VWS V13.00,2013-05-17 17:55:00,
2013-05-17 11:00:00,60.9,50.3,29.84,East,98,2.0,3.0,68,0.00,,---,0.00,VWS V13.00,2013-05-17 18:00:00,
2013-05-17 11:05:00,60.8,49.8,29.83,NNW,334,0.0,4.0,67,0.00,,---,0.00,VWS V13.00,2013-05-17 18:05:00,
2013-05-17 11:10:00,61.6,50.1,29.83,SSE,167,2.0,4.0,66,0.00,,---,0.00,VWS V13.00,2013-05-17 18:10:00,
2013-05-17 11:15:00,61.6,48.0,29.83,SSE,153,0.0,4.0,61,0.00,,---,0.00,VWS V13.00,2013-05-17 18:15:00,
2013-05-17 11:20:00,62.0,49.3,29.84,ESE,113,0.0,6.0,63,0.00,,---,0.00,VWS V13.00,2013-05-17 18:20:00,
2013-05-17 11:25:00,62.6,48.5,29.83,ESE,113,0.0,6.0,60,0.00,,---,0.00,VWS V13.00,2013-05-17 18:25:00,
2013-05-17 11:30:00,63.5,48.9,29.83,ESE,114,1.0,1.0,59,0.00,,---,0.00,VWS V13.00,2013-05-17 18:30:00,
2013-05-17 11:35:00,63.6,48.6,29.82,North,5,4.0,5.0,58,0.00,,---,0.00,VWS V13.00,2013-05-17 18:35:00,
2013-05-17 11:40:00,63.6,48.1,29.82,North,5,3.0,6.0,57,0.00,,---,0.00,VWS V13.00,2013-05-17 18:40:00,
2013-05-17 11:45:00,63.6,48.1,29.82,NNW,330,2.0,6.0,57,0.00,,---,0.00,VWS V13.00,2013-05-17 18:45:00,
2013-05-17 11:50:00,63.7,47.7,29.82,North,355,3.0,6.0,56,0.00,,---,0.00,VWS V13.00,2013-05-17 18:50:00,
2013-05-17 11:55:00,64.2,49.6,29.82,ESE,108,2.0,6.0,59,0.00,,---,0.00,VWS V13.00,2013-05-17 18:55:00,
2013-05-17 12:00:00,65.3,48.7,29.82,ESE,114,0.0,2.0,55,0.00,,---,0.00,VWS V13.00,2013-05-17 19:00:00,
2013-05-17 12:05:00,65.3,49.7,29.82,SE,126,2.0,7.0,57,0.00,,---,0.00,VWS V13.00,2013-05-17 19:05:00,
2013-05-17 12:10:00,65.2,49.6,29.82,ESE,119,0.0,8.0,57,0.00,,---,0.00,VWS V13.00,2013-05-17 19:10:00,
2013-05-17 12:15:00,65.7,48.6,29.82,WSW,246,4.0,8.0,54,0.00,,---,0.00,VWS V13.00,2013-05-17 19:15:00,
2013-05-17 12:20:00,66.4,50.2,29.81,South,175,3.0,8.0,56,0.00,,---,0.00,VWS V13.00,2013-05-17 19:20:00,
2013-05-17 12:25:00,67.1,46.8,29.81,South,188,0.0,8.0,48,0.00,,---,0.00,VWS V13.00,2013-05-17 19:25:00,
2013-05-17 12:30:00,67.5,48.2,29.81,South,173,4.0,4.0,50,0.00,,---,0.00,VWS V13.00,2013-05-17 19:30:00,
2013-05-17 12:35:00,67.4,47.6,29.81,South,173,0.0,4.0,49,0.00,,---,0.00,VWS V13.00,2013-05-17 19:35:00,
2013-05-17 12:40:00,67.3,47.5,29.81,WSW,241,6.0,7.0,49,0.00,,---,0.00,VWS V13.00,2013-05-17 19:40:00,
2013-05-17 12:45:00,67.2,49.5,29.80,SW,233,5.0,7.0,53,0.00,,---,0.00,VWS V13.00,2013-05-17 19:45:00,
2013-05-17 12:50:00,67.6,48.8,29.80,SSE,161,0.0,7.0,51,0.00,,---,0.00,VWS V13.00,2013-05-17 19:50:00,
2013-05-17 12:55:00,67.3,47.5,29.80,SSE,152,3.0,7.0,49,0.00,,---,0.00,VWS V13.00,2013-05-17 19:55:00,
2013-05-17 13:00:00,67.0,49.3,29.80,South,191,2.0,5.0,53,0.00,,---,0.00,VWS V13.00,2013-05-17 20:00:00,
2013-05-17 13:05:00,67.3,47.5,29.80,SE,125,3.0,6.0,49,0.00,,---,0.00,VWS V13.00,2013-05-17 20:05:00,
2013-05-17 13:10:00,67.4,47.6,29.80,SE,145,3.0,7.0,49,0.00,,---,0.00,VWS V13.00,2013-05-17 20:10:00,
2013-05-17 13:15:00,67.7,47.3,29.80,SSE,149,4.0,7.0,48,0.00,,---,0.00,VWS V13.00,2013-05-17 20:15:00,
2013-05-17 13:20:00,68.2,48.3,29.80,SSE,149,0.0,7.0,49,0.00,,---,0.00,VWS V13.00,2013-05-17 20:20:00,
2013-05-17 13:25:00,68.0,48.2,29.80,SSW,196,0.0,7.0,49,0.00,,---,0.00,VWS V13.00,2013-05-17 20:25:00,
2013-05-17 13:30:00,68.9,48.4,29.79,SE,128,4.0,4.0,48,0.00,,---,0.00,VWS V13.00,2013-05-17 20:30:00,
2013-05-17 13:35:00,68.8,47.8,29.79,ESE,117,0.0,5.0,47,0.00,,---,0.00,VWS V13.00,2013-05-17 20:35:00,
2013-05-17 13:40:00,68.7,45.9,29.79,ESE,119,3.0,6.0,44,0.00,,---,0.00,VWS V13.00,2013-05-17 20:40:00,
2013-05-17 13:45:00,68.9,46.7,29.79,ESE,114,3.0,6.0,45,0.00,,---,0.00,VWS V13.00,2013-05-17 20:45:00,
2013-05-17 13:50:00,69.0,47.4,29.79,SE,138,0.0,6.0,46,0.00,,---,0.00,VWS V13.00,2013-05-17 20:50:00,
2013-05-17 13:55:00,69.1,48.6,29.79,ESE,107,3.0,6.0,48,0.00,,---,0.00,VWS V13.00,2013-05-17 20:55:00,
2013-05-17 14:00:00,68.9,46.7,29.79,SE,144,4.0,5.0,45,0.00,,---,0.00,VWS V13.00,2013-05-17 21:00:00,
2013-05-17 14:05:00,69.5,44.8,29.79,SE,145,0.0,6.0,41,0.00,,---,0.00,VWS V13.00,2013-05-17 21:05:00,
2013-05-17 14:10:00,69.2,45.2,29.79,NNE,15,3.0,6.0,42,0.00,,---,0.00,VWS V13.00,2013-05-17 21:10:00,
2013-05-17 14:15:00,69.7,46.2,29.79,SE,130,2.0,6.0,43,0.00,,---,0.00,VWS V13.00,2013-05-17 21:15:00,
2013-05-17 14:20:00,69.7,45.6,29.79,ESE,116,0.0,6.0,42,0.00,,---,0.00,VWS V13.00,2013-05-17 21:20:00,
2013-05-17 14:25:00,69.2,47.0,29.78,ESE,111,0.0,6.0,45,0.00,,---,0.00,VWS V13.00,2013-05-17 21:25:00,
2013-05-17 14:30:00,70.1,47.8,29.78,SSW,202,0.0,3.0,45,0.00,,---,0.00,VWS V13.00,2013-05-17 21:30:00,
2013-05-17 14:35:00,71.1,46.2,29.78,WNW,300,3.0,4.0,41,0.00,,---,0.00,VWS V13.00,2013-05-17 21:35:00,
2013-05-17 14:40:00,70.8,46.6,29.78,SW,227,3.0,7.0,42,0.00,,---,0.00,VWS V13.00,2013-05-17 21:40:00,
2013-05-17 14:45:00,71.2,45.7,29.77,SSE,163,6.0,7.0,40,0.00,,---,0.00,VWS V13.00,2013-05-17 21:45:00,
2013-05-17 14:50:00,70.0,45.2,29.78,South,172,1.0,9.0,41,0.00,,---,0.00,VWS V13.00,2013-05-17 21:50:00,
2013-05-17 14:55:00,70.7,45.9,29.77,SW,225,4.0,9.0,41,0.00,,---,0.00,VWS V13.00,2013-05-17 21:55:00,
2013-05-17 15:00:00,70.8,45.3,29.78,WNW,284,4.0,5.0,40,0.00,,---,0.00,VWS V13.00,2013-05-17 22:00:00,
2013-05-17 15:05:00,71.2,46.3,29.77,SE,128,3.0,5.0,41,0.00,,---,0.00,VWS V13.00,2013-05-17 22:05:00,
2013-05-17 15:10:00,71.2,47.0,29.78,SE,129,1.0,6.0,42,0.00,,---,0.00,VWS V13.00,2013-05-17 22:10:00,
2013-05-17 15:15:00,71.0,46.1,29.77,SSE,150,1.0,6.0,41,0.00,,---,0.00,VWS V13.00,2013-05-17 22:15:00,
2013-05-17 15:20:00,71.3,50.6,29.77,South,173,2.0,6.0,48,0.00,,---,0.00,VWS V13.00,2013-05-17 22:20:00,
2013-05-17 15:25:00,71.8,45.5,29.77,WNW,295,5.0,9.0,39,0.00,,---,0.00,VWS V13.00,2013-05-17 22:25:00,
2013-05-17 15:30:00,72.5,47.5,29.77,SSE,167,4.0,5.0,41,0.00,,---,0.00,VWS V13.00,2013-05-17 22:30:00,
2013-05-17 15:35:00,73.0,48.6,29.77,South,176,6.0,7.0,42,0.00,,---,0.00,VWS V13.00,2013-05-17 22:35:00,
2013-05-17 15:40:00,72.4,47.4,29.77,South,170,7.0,10.0,41,0.00,,---,0.00,VWS V13.00,2013-05-17 22:40:00,
2013-05-17 15:45:00,71.7,44.8,29.77,East,80,2.0,10.0,38,0.00,,---,0.00,VWS V13.00,2013-05-17 22:45:00,
2013-05-17 15:50:00,71.4,45.8,29.77,South,176,5.0,10.0,40,0.00,,---,0.00,VWS V13.00,2013-05-17 22:50:00,
2013-05-17 15:55:00,71.0,46.1,29.77,SSW,198,3.0,10.0,41,0.00,,---,0.00,VWS V13.00,2013-05-17 22:55:00,
2013-05-17 16:00:00,70.5,45.7,29.77,SE,146,0.0,1.0,41,0.00,,---,0.00,VWS V13.00,2013-05-17 23:00:00,
2013-05-17 16:05:00,70.2,46.7,29.78,SE,143,4.0,5.0,43,0.00,,---,0.00,VWS V13.00,2013-05-17 23:05:00,
2013-05-17 16:10:00,69.9,46.4,29.78,WSW,238,2.0,10.0,43,0.00,,---,0.00,VWS V13.00,2013-05-17 23:10:00,
2013-05-17 16:15:00,69.9,46.4,29.78,SSE,163,4.0,10.0,43,0.00,,---,0.00,VWS V13.00,2013-05-17 23:15:00,
2013-05-17 16:20:00,69.8,46.9,29.78,SSE,150,0.0,10.0,44,0.00,,---,0.00,VWS V13.00,2013-05-17 23:20:00,
2013-05-17 16:25:00,69.8,47.5,29.78,SSW,194,2.0,10.0,45,0.00,,---,0.00,VWS V13.00,2013-05-17 23:25:00,
2013-05-17 16:30:00,69.7,47.4,29.78,SSW,205,0.0,4.0,45,0.00,,---,0.00,VWS V13.00,2013-05-17 23:30:00,
2013-05-17 16:35:00,69.5,46.7,29.78,South,178,2.0,7.0,44,0.00,,---,0.00,VWS V13.00,2013-05-17 23:35:00,
2013-05-17 16:40:00,69.2,46.4,29.78,SSE,163,2.0,7.0,44,0.00,,---,0.00,VWS V13.00,2013-05-17 23:40:00,
2013-05-17 16:45:00,68.7,46.5,29.79,South,180,10.0,13.0,45,0.00,,---,0.00,VWS V13.00,2013-05-17 23:45:00,
2013-05-17 16:50:00,68.2,46.7,29.79,SW,214,5.0,13.0,46,0.00,,---,0.00,VWS V13.00,2013-05-17 23:50:00,
2013-05-17 16:54:00,67.6,46.7,29.79,South,191,3.0,13.0,47,0.00,,---,0.00,VWS V13.00,2013-05-17 23:54:00,
2013-05-17 16:59:00,66.9,47.1,29.80,South,180,3.0,8.0,49,0.00,,---,0.00,VWS V13.00,2013-05-17 23:59:00,
2013-05-17 17:04:00,66.2,46.5,29.80,South,169,5.0,10.0,49,0.00,,---,0.00,VWS V13.00,2013-05-18 00:04:00,
2013-05-17 17:09:00,65.7,47.1,29.81,SSW,196,7.0,10.0,51,0.00,,---,0.00,VWS V13.00,2013-05-18 00:09:00,
2013-05-17 17:14:00,65.2,48.2,29.81,South,185,4.0,13.0,54,0.00,,---,0.00,VWS V13.00,2013-05-18 00:14:00,
2013-05-17 17:19:00,64.7,48.7,29.81,South,173,3.0,13.0,56,0.00,,---,0.00,VWS V13.00,2013-05-18 00:19:00,
2013-05-17 17:24:00,64.2,47.7,29.81,SSW,205,7.0,13.0,55,0.00,,---,0.00,VWS V13.00,2013-05-18 00:24:00,
2013-05-17 17:29:00,63.9,47.4,29.81,SSE,163,5.0,6.0,55,0.00,,---,0.00,VWS V13.00,2013-05-18 00:29:00,
2013-05-17 17:34:00,63.8,46.4,29.81,SSE,165,2.0,7.0,53,0.00,,---,0.00,VWS V13.00,2013-05-18 00:34:00,
2013-05-17 17:39:00,63.8,46.8,29.81,South,178,8.0,11.0,54,0.00,,---,0.00,VWS V13.00,2013-05-18 00:39:00,
2013-05-17 17:44:00,63.8,46.4,29.81,South,184,9.0,11.0,53,0.00,,---,0.00,VWS V13.00,2013-05-18 00:44:00,
2013-05-17 17:49:00,63.8,46.8,29.81,SSE,159,3.0,15.0,54,0.00,,---,0.00,VWS V13.00,2013-05-18 00:49:00,
2013-05-17 17:54:00,63.8,45.9,29.82,South,190,5.0,15.0,52,0.00,,---,0.00,VWS V13.00,2013-05-18 00:54:00,
2013-05-17 17:59:00,63.8,45.9,29.81,South,186,4.0,16.0,52,0.00,,---,0.00,VWS V13.00,2013-05-18 00:59:00,
2013-05-17 18:04:00,63.8,45.9,29.81,SSW,194,2.0,16.0,52,0.00,,---,0.00,VWS V13.00,2013-05-18 01:04:00,
2013-05-17 18:09:00,63.9,46.0,29.82,SSE,162,6.0,16.0,52,0.00,,---,0.00,VWS V13.00,2013-05-18 01:09:00,
2013-05-17 18:14:00,63.9,46.0,29.82,SSE,168,3.0,16.0,52,0.00,,---,0.00,VWS V13.00,2013-05-18 01:14:00,
2013-05-17 18:19:00,64.0,46.5,29.82,South,179,2.0,16.0,53,0.00,,---,0.00,VWS V13.00,2013-05-18 01:19:00,
2013-05-17 18:24:00,64.2,46.7,29.82,South,172,2.0,16.0,53,0.00,,---,0.00,VWS V13.00,2013-05-18 01:24:00,
2013-05-17 18:29:00,64.4,46.9,29.82,South,182,2.0,5.0,53,0.00,,---,0.00,VWS V13.00,2013-05-18 01:29:00,
2013-05-17 18:34:00,64.5,47.5,29.82,SSE,153,4.0,10.0,54,0.00,,---,0.00,VWS V13.00,2013-05-18 01:34:00,
2013-05-17 18:39:00,64.5,47.5,29.82,SSE,154,3.0,10.0,54,0.00,,---,0.00,VWS V13.00,2013-05-18 01:39:00,
2013-05-17 18:44:00,64.4,46.9,29.83,SSE,152,5.0,10.0,53,0.00,,---,0.00,VWS V13.00,2013-05-18 01:44:00,
2013-05-17 18:49:00,64.3,46.3,29.83,South,180,3.0,12.0,52,0.00,,---,0.00,VWS V13.00,2013-05-18 01:49:00,
2013-05-17 18:54:00,64.2,46.7,29.83,South,175,1.0,12.0,53,0.00,,---,0.00,VWS V13.00,2013-05-18 01:54:00,
2013-05-17 18:59:00,64.1,46.6,29.82,South,172,6.0,6.0,53,0.00,,---,0.00,VWS V13.00,2013-05-18 01:59:00,
2013-05-17 19:04:00,64.0,46.5,29.82,SSE,165,0.0,6.0,53,0.00,,---,0.00,VWS V13.00,2013-05-18 02:04:00,
2013-05-17 19:09:00,63.9,46.5,29.82,SSE,153,2.0,7.0,53,0.00,,---,0.00,VWS V13.00,2013-05-18 02:09:00,
2013-05-17 19:14:00,63.6,46.7,29.83,SE,142,3.0,7.0,54,0.00,,---,0.00,VWS V13.00,2013-05-18 02:14:00,
2013-05-17 19:19:00,63.4,47.0,29.83,SW,226,2.0,7.0,55,0.00,,---,0.00,VWS V13.00,2013-05-18 02:19:00,
2013-05-17 19:24:00,63.3,46.9,29.83,South,171,3.0,7.0,55,0.00,,---,0.00,VWS V13.00,2013-05-18 02:24:00,
2013-05-17 19:29:00,63.1,46.7,29.83,SSW,195,2.0,3.0,55,0.00,,---,0.00,VWS V13.00,2013-05-18 02:29:00,
2013-05-17 19:34:00,62.9,46.0,29.84,South,186,2.0,6.0,54,0.00,,---,0.00,VWS V13.00,2013-05-18 02:34:00,
2013-05-17 19:39:00,62.6,45.7,29.84,South,172,4.0,9.0,54,0.00,,---,0.00,VWS V13.00,2013-05-18 02:39:00,
2013-05-17 19:44:00,62.3,45.0,29.84,South,169,2.0,9.0,53,0.00,,---,0.00,VWS V13.00,2013-05-18 02:44:00,
2013-05-17 19:49:00,62.1,45.3,29.84,SSE,148,3.0,9.0,54,0.00,,---,0.00,VWS V13.00,2013-05-18 02:49:00,
2013-05-17 19:54:00,61.9,45.1,29.85,SSE,148,3.0,9.0,54,0.00,,---,0.00,VWS V13.00,2013-05-18 02:54:00,
2013-05-17 19:59:00,61.7,45.4,29.84,SSE,163,2.0,3.0,55,0.00,,---,0.00,VWS V13.00,2013-05-18 02:59:00,
2013-05-17 20:04:00,61.5,45.2,29.84,SSE,165,2.0,5.0,55,0.00,,---,0.00,VWS V13.00,2013-05-18 03:04:00,
2013-05-17 20:09:00,61.3,45.5,29.84,South,190,0.0,5.0,56,0.00,,---,0.00,VWS V13.00,2013-05-18 03:09:00,
2013-05-17 20:14:00,61.0,45.2,29.84,South,186,0.0,7.0,56,0.00,,---,0.00,VWS V13.00,2013-05-18 03:14:00,
2013-05-17 20:19:00,60.8,45.0,29.84,SSE,167,2.0,7.0,56,0.00,,---,0.00,VWS V13.00,2013-05-18 03:19:00,
2013-05-17 20:24:00,60.6,45.3,29.85,South,175,0.0,7.0,57,0.00,,---,0.00,VWS V13.00,2013-05-18 03:24:00,
2013-05-17 20:29:00,60.4,45.6,29.85,SSE,153,5.0,5.0,58,0.00,,---,0.00,VWS V13.00,2013-05-18 03:29:00,
2013-05-17 20:34:00,60.1,45.3,29.85,SSE,152,0.0,6.0,58,0.00,,---,0.00,VWS V13.00,2013-05-18 03:34:00,
2013-05-17 20:39:00,59.8,45.5,29.85,SSE,152,3.0,6.0,59,0.00,,---,0.00,VWS V13.00,2013-05-18 03:39:00,
2013-05-17 20:44:00,59.5,45.6,29.85,SSE,152,3.0,6.0,60,0.00,,---,0.00,VWS V13.00,2013-05-18 03:44:00,
2013-05-17 20:49:00,59.2,45.3,29.85,SSE,159,2.0,6.0,60,0.00,,---,0.00,VWS V13.00,2013-05-18 03:49:00,
2013-05-17 20:54:00,59.0,45.6,29.86,SSE,157,0.0,6.0,61,0.00,,---,0.00,VWS V13.00,2013-05-18 03:54:00,
2013-05-17 20:59:00,59.0,45.6,29.85,South,172,2.0,3.0,61,0.00,,---,0.00,VWS V13.00,2013-05-18 03:59:00,
2013-05-17 21:01:00,59.0,45.6,29.85,South,173,0.0,3.0,61,0.00,,---,0.00,VWS V13.00,2013-05-18 04:01:00,
2013-05-17 21:06:00,58.7,45.7,29.85,South,171,2.0,4.0,62,0.00,,---,0.00,VWS V13.00,2013-05-18 04:06:00,
2013-05-17 21:11:00,58.4,45.9,29.85,South,171,1.0,4.0,63,0.00,,---,0.00,VWS V13.00,2013-05-18 04:11:00,
2013-05-17 21:16:00,58.3,45.8,29.86,SSW,192,1.0,5.0,63,0.00,,---,0.00,VWS V13.00,2013-05-18 04:16:00,
2013-05-17 21:21:00,58.1,45.6,29.86,South,191,0.0,5.0,63,0.00,,---,0.00,VWS V13.00,2013-05-18 04:21:00,
2013-05-17 21:26:00,58.0,45.9,29.86,South,191,0.0,5.0,64,0.00,,---,0.00,VWS V13.00,2013-05-18 04:26:00,
2013-05-17 21:31:00,57.8,45.7,29.86,South,191,0.0,1.0,64,0.00,,---,0.00,VWS V13.00,2013-05-18 04:31:00,
2013-05-17 21:36:00,57.6,45.9,29.86,South,191,0.0,3.0,65,0.00,,---,0.00,VWS V13.00,2013-05-18 04:36:00,
2013-05-17 21:41:00,57.5,45.8,29.86,South,191,0.0,3.0,65,0.00,,---,0.00,VWS V13.00,2013-05-18 04:41:00,
2013-05-17 21:46:00,57.3,46.0,29.87,South,191,3.0,4.0,66,0.00,,---,0.00,VWS V13.00,2013-05-18 04:46:00,
2013-05-17 21:51:00,57.1,45.9,29.87,ESE,120,0.0,4.0,66,0.00,,---,0.00,VWS V13.00,2013-05-18 04:51:00,
2013-05-17 21:56:00,57.0,46.2,29.87,ESE,120,0.0,4.0,67,0.00,,---,0.00,VWS V13.00,2013-05-18 04:56:00,
2013-05-17 22:01:00,56.8,46.0,29.86,ESE,119,0.0,3.0,67,0.00,,---,0.00,VWS V13.00,2013-05-18 05:01:00,
2013-05-17 22:06:00,56.7,45.9,29.86,ESE,119,0.0,3.0,67,0.00,,---,0.00,VWS V13.00,2013-05-18 05:06:00,
2013-05-17 22:11:00,56.6,45.8,29.86,ESE,120,0.0,3.0,67,0.00,,---,0.00,VWS V13.00,2013-05-18 05:11:00,
2013-05-17 22:16:00,56.5,46.1,29.86,SE,145,2.0,6.0,68,0.00,,---,0.00,VWS V13.00,2013-05-18 05:16:00,
2013-05-17 22:21:00,56.5,45.7,29.86,SE,146,0.0,6.0,67,0.00,,---,0.00,VWS V13.00,2013-05-18 05:21:00,
2013-05-17 22:26:00,56.5,45.7,29.86,SE,145,0.0,6.0,67,0.00,,---,0.00,VWS V13.00,2013-05-18 05:26:00,
2013-05-17 22:31:00,56.5,46.1,29.86,SE,146,0.0,3.0,68,0.00,,---,0.00,VWS V13.00,2013-05-18 05:31:00,
2013-05-17 22:36:00,56.5,46.1,29.86,SE,146,3.0,4.0,68,0.00,,---,0.00,VWS V13.00,2013-05-18 05:36:00,
2013-05-17 22:41:00,56.4,46.0,29.87,SE,145,0.0,4.0,68,0.00,,---,0.00,VWS V13.00,2013-05-18 05:41:00,
2013-05-17 22:46:00,56.4,46.0,29.87,SE,137,5.0,5.0,68,0.00,,---,0.00,VWS V13.00,2013-05-18 05:46:00,
2013-05-17 22:51:00,56.4,46.0,29.87,SE,137,0.0,5.0,68,0.00,,---,0.00,VWS V13.00,2013-05-18 05:51:00,
2013-05-17 22:56:00,56.4,46.4,29.86,SE,137,0.0,5.0,69,0.00,,---,0.00,VWS V13.00,2013-05-18 05:56:00,
2013-05-17 23:01:00,56.3,46.7,29.86,SE,137,0.0,0.0,70,0.00,,---,0.00,VWS V13.00,2013-05-18 06:01:00,
2013-05-17 23:06:00,56.2,46.2,29.86,SE,137,0.0,1.0,69,0.00,,---,0.00,VWS V13.00,2013-05-18 06:06:00,
2013-05-17 23:11:00,56.1,46.1,29.86,SE,137,0.0,1.0,69,0.00,,---,0.00,VWS V13.00,2013-05-18 06:11:00,
2013-05-17 23:16:00,56.0,46.4,29.86,SE,137,0.0,1.0,70,0.00,,---,0.00,VWS V13.00,2013-05-18 06:16:00,
2013-05-17 23:21:00,55.9,46.3,29.86,SE,137,0.0,1.0,70,0.00,,---,0.00,VWS V13.00,2013-05-18 06:21:00,
2013-05-17 23:26:00,55.8,46.2,29.86,SE,137,0.0,3.0,70,0.00,,---,0.00,VWS V13.00,2013-05-18 06:26:00,
2013-05-17 23:31:00,55.8,46.2,29.86,SE,137,0.0,1.0,70,0.00,,---,0.00,VWS V13.00,2013-05-18 06:31:00,
2013-05-17 23:36:00,55.8,46.2,29.87,SE,137,0.0,1.0,70,0.00,,---,0.00,VWS V13.00,2013-05-18 06:36:00,
2013-05-17 23:41:00,55.8,46.2,29.87,SE,137,0.0,1.0,70,0.00,,---,0.00,VWS V13.00,2013-05-18 06:41:00,
2013-05-17 23:46:00,55.8,46.2,29.87,SE,137,0.0,1.0,70,0.00,,---,0.00,VWS V13.00,2013-05-18 06:46:00,
2013-05-17 23:51:00,55.7,46.1,29.87,SE,137,0.0,1.0,70,0.00,,---,0.00,VWS V13.00,2013-05-18 06:51:00,
2013-05-17 23:56:00,55.7,46.5,29.87,SE,137,0.0,1.0,71,0.00,,---,0.00,VWS V13.00,2013-05-18 06:56:00,